Dewpoint
73 73 73 73 73 73 72 72 73 71 73 70 74 73 73 73 73 74 73 72 73 72 70 69 69 66 65 62 60 59 60 58 55 56 61 64 62 61 61 62 63 64 63
73 73 72 73 74 73 72 72 73 74 72 74 73 72 73 73 73 73 73 71 72 73 71 68 70 68 66 66 67 60 59 61 59 58 60 63 64 63 65 65 62 59 62
72 72 72 72 73 73 74 73 73 73 74 73 74 74 72 73 73 74 73 73 70 73 73 71 70 68 67 65 64 63 62 62 63 59 60 62 65 67 64 65 66 65 64
69 71 71 72 72 73 73 74 73 73 73 73 73 73 74 73 73 73 73 74 73 71 73 73 72 70 68 68 66 63 63 63 61 61 61 60 61 65 66 64 64 65 64
66 69 70 71 72 72 73 73 74 74 73 74 74 73 74 74 73 73 73 73 74 72 72 73 73 73 71 69 68 68 64 63 63 61 59 60 59 60 62 62 60 61 64
65 66 69 71 72 73 73 73 74 74 74 74 74 74 73 73 73 72 73 73 73 73 73 72 73 72 72 69 68 66 67 64 61 59 60 60 61 61 64 62 61 60 58
65 67 68 70 71 72 73 73 73 74 74 74 74 74 74 74 72 71 70 72 72 73 73 73 73 72 72 71 67 66 65 66 65 63 63 63 64 64 64 63 62 63 61
67 67 69 70 71 72 73 73 74 74 74 74 74 75 74 74 73 70 69 71 72 72 73 73 73 72 72 72 70 67 66 66 66 66 67 66 68 66 66 66 64 64 65
66 68 69 71 71 72 73 74 74 74 74 75 75 75 75 74 73 71 68 70 70 71 72 73 73 73 72 70 71 69 67 67 67 65 65 68 67 66 68 66 65 63 62
67 67 69 70 71 71 73 74 75 75 75 74 75 75 75 75 74 71 69 71 70 70 71 72 71 72 72 69 71 71 69 68 67 66 64 64 64 64 64 66 64 62 61
67 68 69 70 70 72 72 74 75 75 75 75 74 75 75 75 75 72 69 72 71 70 69 70 71 70 70 68 69 71 70 70 68 67 66 65 65 65 65 65 66 63 61
64 69 70 72 71 71 73 74 75 75 75 74 74 74 74 75 74 73 69 68 72 72 70 69 70 70 67 67 67 70 70 70 70 68 66 65 65 65 67 66 66 65 64
68 70 71 72 73 72 74 74 74 75 74 74 74 73 73 74 74 73 71 68 68 70 72 71 67 67 67 65 67 68 68 70 70 69 67 66 66 66 66 66 65 64 62
70 71 72 72 73 73 72 74 73 73 74 74 73 73 72 72 73 73 72 67 66 68 70 70 71 68 65 66 66 66 69 71 70 69 68 67 68 67 65 65 64 63 59
70 72 73 72 73 73 73 71 73 73 72 72 73 72 70 71 70 66 68 72 70 69 70 71 71 70 70 66 66 67 70 71 70 69 68 67 66 65 65 64 62 60 57
70 70 69 69 70 71 72 73 71 70 67 63 63 67 70 66 64 66 68 68 67 68 68 70 70 70 68 68 66 67 69 69 69 69 67 66 65 64 63 62 61 58 55
68 69 68 68 67 70 70 71 71 62 59 60 60 58 57 58 58 60 63 65 66 66 69 69 70 70 68 68 67 67 67 68 68 67 66 65 64 64 61 60 58 55 54
63 62 64 65 65 67 68 67 67 68 68 67 61 59 54 53 53 54 55 58 65 63 68 68 69 69 68 67 66 67 67 67 67 66 64 64 64 61 60 58 56 54 52
63 62 63 63 63 63 63 62 62 63 62 61 61 60 59 57 56 55 54 55 58 64 65 67 69 69 68 67 67 67 66 66 66 65 65 64 63 61 59 57 55 53 53
61 60 60 60 61 59 59 60 61 61 60 60 59 58 57 58 58 59 60 58 57 59 61 63 63 63 67 67 67 66 65 65 65 65 64 63 62 60 58 55 53 51 51
58 59 59 58 59 59 59 58 58 59 59 59 58 57 55 58 59 61 61 60 60 63 65 65 65 65 65 66 66 66 65 64 64 64 63 61 61 58 54 53 52 49 45
59 58 58 56 57 58 59 59 59 58 58 58 57 59 59 60 59 60 61 62 63 64 66 65 64 64 64 64 65 64 64 63 63 61 60 58 56 54 53 52 51 47 44
58 58 59 59 59 59 59 59 58 58 59 59 60 60 60 60 60 60 61 62 63 64 64 65 65 65 66 66 65 64 63 62 62 61 58 55 54 53 51 48 44 43 41
59 59 59 59 58 58 58 58 58 58 58 58 57 58 59 60 61 61 62 63 64 64 65 64 64 64 63 63 63 63 62 61 60 57 54 53 51 49 47 45 43 40 38
55 55 57 56 56 56 55 54 54 53 53 54 54 55 56 57 57 58 58 61 63 64 64 64 63 63 61 61 61 60 56 54 54 53 51 50 48 46 45 42 40 38 37
48 50 50 53 54 54 53 52 52 53 52 52 52 53 53 53 54 56 57 57 57 59 60 61 62 62 60 60 58 51 49 49 48 48 49 47 46 45 42 41 41 38 37
Wind_Speed
35 34 32 30 30 28 24 23 19 20 13 19 18 22 21 20 20 18 18 17 18 17 16 16 19 16 13 9 12 9 8 8 8 10 3 13 8 12 9 6 6 8 14
31 30 30 29 28 30 30 26 24 20 22 17 17 19 21 22 22 23 22 21 19 23 22 19 17 16 17 14 6 13 11 8 9 11 7 4 6 12 11 10 9 9 9
29 29 29 31 30 30 30 30 26 26 24 24 20 22 24 24 24 23 23 24 22 22 21 21 17 17 17 16 15 12 13 9 6 8 9 6 5 13 13 9 10 12 13
31 30 31 31 30 30 28 29 30 28 28 28 27 25 23 24 24 24 24 23 24 21 22 22 22 22 21 21 19 19 14 15 16 13 14 14 12 14 16 17 15 13 13
32 34 34 31 30 29 29 29 30 30 31 30 29 27 26 26 25 27 26 27 27 26 23 21 23 25 26 25 21 19 20 18 14 17 15 13 13 10 17 15 13 10 15
33 34 33 32 32 31 30 30 29 30 29 28 29 29 29 28 29 32 29 26 26 28 27 26 24 30 31 34 31 27 21 22 21 18 15 17 19 17 10 14 15 14 7
32 29 31 32 32 32 30 31 30 31 29 30 30 30 33 33 33 38 39 31 29 28 29 28 26 26 29 26 33 32 25 27 26 23 20 18 12 16 12 10 10 7 6
22 27 27 28 30 29 31 32 31 29 30 30 29 31 31 33 35 38 40 36 33 33 32 32 30 29 27 31 28 30 31 27 28 24 22 19 12 9 8 11 9 6 3
24 22 25 25 27 29 32 32 29 28 29 29 29 29 33 32 33 39 37 33 34 35 33 32 32 32 32 35 31 31 32 30 25 27 22 13 12 11 12 11 11 11 8
27 27 22 24 27 29 29 29 27 27 28 26 28 30 32 33 33 36 38 30 33 34 32 31 37 36 34 35 36 29 28 28 25 23 24 18 14 14 14 15 16 13 8
26 23 24 25 27 26 24 24 25 26 24 27 27 27 30 32 33 34 38 34 37 33 31 31 32 39 40 35 39 32 34 24 28 27 21 18 14 15 16 17 15 13 16
17 24 22 22 23 22 22 21 22 23 25 25 26 27 26 29 30 29 33 42 33 28 29 26 26 32 36 39 39 37 31 30 24 25 20 21 21 20 16 12 12 10 9
12 16 19 18 19 20 20 22 21 22 23 24 25 24 24 22 21 28 30 33 39 36 30 27 8 23 34 39 45 41 35 27 24 24 25 25 24 18 17 17 18 15 8
9 11 13 15 17 19 18 19 21 21 22 22 20 22 20 18 19 21 18 26 35 33 37 34 31 19 13 21 30 36 35 30 29 25 24 18 15 18 18 17 17 20 17
9 11 11 13 16 16 17 16 20 21 19 20 20 21 19 17 14 7 9 16 22 28 30 27 29 28 30 17 20 27 33 30 29 22 22 18 17 17 17 18 16 15 12
8 8 10 12 13 14 15 16 14 8 8 4 6 2 4 5 12 12 12 15 14 26 21 27 28 28 27 26 24 25 28 29 27 22 18 19 18 19 19 17 17 18 17
4 1 11 15 12 19 17 15 17 12 19 21 16 14 13 9 14 15 14 13 14 18 18 22 26 27 27 26 27 30 29 26 26 23 23 21 22 21 25 24 23 21 17
5 5 8 14 12 14 13 12 11 12 7 5 10 10 13 16 16 16 16 10 10 13 20 24 26 26 25 26 27 28 28 26 27 28 25 21 23 27 26 21 20 21 19
5 10 12 11 10 11 9 10 9 9 8 7 8 8 14 16 14 11 10 8 12 15 14 20 21 22 26 30 30 31 34 34 31 28 21 22 22 23 23 21 21 22 20
9 6 8 11 7 7 6 5 7 5 3 5 7 9 11 11 9 10 6 5 8 11 17 21 20 21 22 24 30 34 31 29 33 26 23 27 24 21 22 25 22 18 19
11 7 14 11 8 8 6 6 6 8 6 7 6 5 3 5 8 9 8 5 8 12 12 11 14 15 9 8 23 31 27 35 25 23 24 25 26 24 22 21 20 17 17
9 8 10 14 12 11 12 14 13 12 11 9 6 3 3 4 8 5 6 8 9 10 9 11 5 6 3 12 16 16 18 16 18 20 21 22 23 22 19 16 18 16 17
14 13 13 14 16 15 17 15 14 13 10 9 11 11 11 11 11 10 10 10 10 9 8 8 8 1 2 6 10 12 15 17 16 17 17 20 20 19 17 15 13 15 15
20 19 19 19 18 20 18 18 15 17 15 13 14 14 15 13 11 12 10 10 9 6 3 3 4 5 6 8 9 9 6 11 14 14 15 15 15 15 11 9 13 11 15
17 18 17 18 19 18 18 17 15 15 14 14 13 14 14 16 17 18 22 14 8 3 3 3 5 6 8 9 8 8 18 21 16 16 15 14 14 17 15 13 11 11 11
21 18 19 16 17 17 17 15 14 14 16 15 15 15 16 17 17 17 20 23 24 17 3 5 4 5 10 14 15 15 21 18 15 15 12 11 9 13 12 9 10 11 11
Wind_Direction
199 199 201 203 202 207 214 206 218 218 216 226 188 189 191 193 200 201 209 205 201 206 202 215 203 212 237 237 202 232 222 216 248 287 244 140 137 129 159 180 177 181 197
199 201 205 204 204 205 210 213 207 212 214 222 203 196 191 196 200 205 207 217 211 202 207 211 203 203 224 243 256 211 220 230 221 243 258 168 175 181 179 185 211 245 245
199 202 204 209 207 208 208 211 213 208 217 212 212 205 203 202 203 207 211 214 225 210 207 210 215 199 211 224 230 233 208 209 223 228 253 273 191 180 190 202 213 227 262
196 202 208 209 211 211 210 210 212 215 210 216 216 210 208 208 208 209 210 214 219 232 212 212 210 210 206 208 218 219 224 206 211 221 227 238 244 192 183 191 216 222 233
200 202 208 209 211 212 211 212 213 214 217 212 215 218 211 212 214 212 211 211 215 219 229 214 215 213 211 208 206 215 210 215 209 209 222 229 234 228 192 199 206 210 221
200 205 204 205 209 210 214 213 214 216 218 218 217 215 218 217 214 210 210 216 216 219 222 225 220 216 214 209 209 208 204 202 213 216 216 212 216 225 199 197 201 213 205
203 204 204 202 205 207 210 215 215 215 215 218 217 216 218 220 217 211 210 214 219 220 221 224 225 223 214 210 212 213 214 210 208 210 218 221 208 210 199 187 197 181 201
202 205 203 201 204 205 208 212 214 214 215 217 219 220 223 224 219 216 212 216 219 221 221 219 220 225 216 210 206 209 215 218 218 213 217 222 215 199 185 184 182 193 206
212 212 207 201 202 204 209 211 211 213 217 218 219 221 225 230 223 220 214 219 226 227 224 222 220 222 221 208 208 209 214 219 217 222 227 213 202 195 176 165 183 183 217
210 215 210 210 209 210 210 209 211 215 219 219 222 223 226 232 230 224 215 221 229 232 231 229 223 223 220 210 207 212 214 217 213 213 219 215 199 196 190 192 189 195 182
210 209 209 209 215 215 213 207 209 214 220 222 227 227 230 232 235 227 219 219 228 230 230 228 229 226 220 211 207 212 213 204 208 210 210 208 184 183 192 202 212 200 181
201 201 207 209 209 214 210 211 210 213 219 225 226 232 235 238 240 237 227 222 235 240 244 242 240 228 223 215 208 214 208 203 201 197 188 191 192 196 194 203 224 214 231
208 192 197 202 202 213 204 207 212 213 221 224 227 234 238 244 245 237 233 226 233 236 243 249 295 243 220 215 211 211 204 203 204 197 197 194 193 194 187 187 182 201 183
228 198 187 197 199 205 214 202 211 216 220 227 232 233 243 247 240 246 235 222 225 228 237 243 246 249 224 236 211 205 204 205 204 197 198 186 171 180 191 173 171 176 179
217 197 193 203 200 205 211 222 205 217 222 223 225 234 247 245 235 5 313 224 213 220 223 233 236 239 241 231 209 213 206 205 201 194 187 168 171 172 181 176 168 171 182
188 189 205 213 203 202 205 218 240 231 191 121 74 35 301 55 356 342 329 313 304 220 208 225 227 224 223 221 214 210 215 205 197 188 160 149 176 182 184 170 174 181 187
77 101 206 204 208 184 204 201 207 82 88 97 81 58 42 4 358 354 336 306 280 204 222 228 229 223 223 223 215 208 202 204 184 170 158 175 201 206 175 182 189 176 195
112 86 69 41 35 49 49 44 34 46 71 68 60 64 48 34 26 17 0 337 288 253 248 240 235 228 219 214 205 209 203 189 183 175 175 182 205 173 176 177 181 188 197
119 88 95 73 60 65 60 59 55 49 40 30 17 22 19 5 2 22 41 2 304 311 288 275 275 259 231 214 210 204 199 187 183 175 175 163 181 169 171 178 185 189 191
89 75 103 119 129 99 98 109 124 124 103 64 44 32 7 348 346 348 0 346 317 297 284 276 269 270 270 250 227 205 190 180 162 162 174 160 163 167 178 186 187 183 191
123 117 113 96 92 96 83 97 96 68 57 28 76 87 58 334 348 4 349 344 298 301 338 323 293 272 263 284 255 243 191 144 138 160 167 161 170 182 184 181 188 174 172
141 123 91 99 93 64 73 57 48 57 48 31 32 125 8 320 341 318 318 328 324 313 321 316 322 316 95 108 95 84 98 119 148 163 162 164 170 177 178 181 182 184 173
57 87 83 68 62 65 75 62 56 56 49 39 37 27 16 17 2 350 334 321 325 331 335 327 296 297 64 81 88 110 131 147 157 160 166 166 165 169 173 177 176 179 179
67 64 69 64 61 60 56 68 55 43 39 35 29 12 21 6 358 347 337 321 308 326 351 10 44 98 91 91 112 117 129 160 163 155 148 159 157 160 166 169 187 187 182
70 76 83 72 66 64 60 57 50 46 38 36 30 32 28 18 12 16 19 349 342 10 45 110 94 102 116 114 121 164 153 149 147 145 149 156 157 164 174 187 193 197 197
50 57 64 69 83 83 75 64 56 54 47 35 24 23 31 33 21 16 22 21 21 11 14 173 167 204 166 183 209 157 146 151 145 137 123 146 149 159 176 190 196 197 204